{"data":{"norad_id":56957,"intl_designator":"2023-084AB","name":"ION SCV-011","alt_names":[],"object_type":"PAYLOAD","status":"ACTIVE","operator":null,"country":"IT","launch_date":"2023-06-12","launch_site_code":"AFWTR","launch_vehicle":null,"mission":null,"orbit_class":"UNKNOWN","rcs_meters":null,"size_class":null,"mass_kg":null,"dimensions":null,"purposes":[],"wikipedia_slug":null,"has_3d_model":false,"image_url":null,"decayed_at":null,"tle_current":{"epoch":"2026-09-21T18:36:56.684448Z","epoch_age_seconds":89705,"freshness":"FRESH","line1":"1 56957U 23084AB  26264.77565607  .00003177  00000+0  11368-3 0  9991","line2":"2 56957  98.1356 101.0731 0008339  66.0870 294.1240 15.29636270180573","mean_motion":15.2963627,"eccentricity":0.0008339,"inclination_deg":98.1356,"raan_deg":101.0731,"arg_perigee_deg":66.087,"mean_anomaly_deg":294.124,"bstar":0.00011368,"rev_number":18057,"period_min":94.140027158221,"perigee_km":471.18236816175,"apogee_km":482.6151968398,"semimajor_km":6855.0357825008,"source":"CELESTRAK","updated_at":"2026-09-22T09:00:25.994634Z"}}}